Regional Weather Roundup
Issued by NWS

Home | Current Version | Previous Version | Graphics & Text | Print | Product List | Glossary On
Versions: 1 2 3 4 5 6 7 8 9 10 11 12 13 14 15 16 17 18 19 20 21 22 23 24 25 26 27 28 29 30 31 32 33 34 35 36 37 38 39 40 41 42 43 44 45 46 47 48 49 50
000
ASUS43 KLOT 231506
RWRIL

ILLINOIS REGIONAL WEATHER ROUNDUP
NATIONAL WEATHER SERVICE CHICAGO/ROMEOVILLE IL
1000 AM CDT WED APR 23 2014

NOTE: "FAIR" INDICATES FEW OR NO CLOUDS BELOW 12,000 FEET WITH NO
SIGNIFICANT WEATHER AND/OR OBSTRUCTIONS TO VISIBILITY.

* THESE STATIONS ARE NOT UNDER NWS QUALITY CONTROL. THEY ALSO MAY NOT
  REPORT WEATHER SUCH AS PRECIPITATION OR FOG.

ILZ001-002-007-009-015-016-024-231600-
NORTHWEST ILLINOIS

CITY           SKY/WX    TMP DP  RH WIND       PRES   REMARKS
MOLINE         MOSUNNY   47  30  51 SE13      30.18R
STERLING*      MOSUNNY   46  30  53 E10       30.17F
SAVANNA*       PTSUNNY   46  31  56 E9        30.18S
$$

ILZ003-004-008-010-011-017-018-231600-
NORTH CENTRAL ILLINOIS

CITY           SKY/WX    TMP DP  RH WIND       PRES   REMARKS
ROCKFORD       MOSUNNY   46  28  49 NE8       30.20R
FREEPORT*      MOSUNNY   43  30  60 E6        30.19S
ROCHELLE*      SUNNY     44  27  50 E7        30.18R
DE KALB*       SUNNY     44  28  54 E10       30.17S
PERU*          MOSUNNY   44  32  63 CALM      30.18S
$$

ILZ005-006-012>014-019>023-231600-
NORTHEAST ILLINOIS

CITY           SKY/WX    TMP DP  RH WIND       PRES   REMARKS
CHICAGO-OHARE  MOSUNNY   44  25  47 E13       30.17F
CHICAGO-MIDWAY MOSUNNY   44  29  55 NE14      30.18S
AURORA         SUNNY     45  29  53 E13       30.18S
LANSING*       SUNNY     42  28  57 NE9G20    30.18S
JOLIET*        SUNNY     45  28  51 E13       30.18S
WAUKEGAN       SUNNY     40  26  57 N9        30.18S
DUPAGE AIRPORT SUNNY     44  27  51 E14       30.17S
KANKAKEE*      SUNNY     44  31  59 NE13      30.17F
WHEELING       SUNNY     42  26  53 NE10      30.20S
MORRIS*        SUNNY     46  24  42 NE7       30.17S
ROMEOVILLE*    SUNNY     44  28  53 NE10      30.17S
NORTHERLY ISL    N/A     41  31  68 N9          N/A
$$

LMZ740>746-231600-
SOUTHERN LAKE MICHIGAN

STATION/POSITION SKY/WX   TEMP    WIND        PRES    VSBY  WAVE
                          AIR SEA DIR/SP/G                  HT/PER
                          (F)     (DEG/KT/KT) (MB)    (MI)  (FT/S)
WAUKEGAN HARBOR            37      40/ 10/ 13 1023.7S
HARRISON CRIB              36      10/ 10/ 11   N/A
BURNHAM HARBOR             40      30/ 10/ 14   N/A
CALUMET HARBOR             39      10/  9/ 12 1023.3
MICHIGAN CITY              37     360/ 14/ 16   N/A
$$

ILZ025>027-034>036-040-047-049-050-058-095>099-231600-
WEST-CENTRAL ILLINOIS

CITY           SKY/WX    TMP DP  RH WIND       PRES   REMARKS
QUINCY         MOSUNNY   51  32  48 SE15      30.13R
GALESBURG*     CLOUDY    49  32  53 E9        30.17R
MACOMB*        SUNNY     48  31  50 SE13      30.18S
JACKSONVILLE*  SUNNY     51  32  47 E13G18    30.16F
PITTSFIELD*    MOSUNNY   53  31  43 E9        30.15S
$$

ILZ028>032-037-038-041>044-048-051>054-059>061-231600-
CENTRAL ILLINOIS

CITY           SKY/WX    TMP DP  RH WIND       PRES   REMARKS
PONTIAC        SUNNY     46  30  53 E12       30.17S
BLOOMINGTON    SUNNY     44  29  56 E10G17    30.18R
DECATUR        SUNNY     48  30  49 E8        30.18S
PEORIA         PTSUNNY   48  30  49 SE6       30.18R
LACON*         MOSUNNY   46  31  55 E8        30.18R
LINCOLN*       SUNNY     49  31  49 E7        30.17F
SPRINGFIELD    SUNNY     51  30  44 E13       30.17S
TAYLORVILLE    SUNNY     48  30  49 E10       30.16S
$$

ILZ033-039-045-046-055>057-062-063-231600-
EAST-CENTRAL ILLINOIS

CITY           SKY/WX    TMP DP  RH WIND       PRES   REMARKS
CHAMPAIGN      SUNNY     47  29  49 NE10      30.16S
RANTOUL*       SUNNY     46  29  49 N8        30.17S
MATTOON        SUNNY     47  29  49 NE8       30.16R
PARIS*         SUNNY     47  31  51 E9        30.16S
$$

ILZ079-100>102-231600-
SOUTHWEST ILLINOIS

CITY           SKY/WX    TMP DP  RH WIND       PRES   REMARKS
BELLEVILLE     SUNNY     54  38  53 E9        30.14R
CAHOKIA*       SUNNY     55  39  54 E9        30.13S
SPARTA*        SUNNY     54  37  54 E12       30.14R
$$

ILZ064>066-069>071-074>076-080>082-084>086-088>090-092>094-231600-
SOUTH-CENTRAL ILLINOIS

CITY           SKY/WX    TMP DP  RH WIND       PRES   REMARKS
CARBONDALE     SUNNY     56  38  50 E13       30.12R
CAIRO*         SUNNY     62  40  45 E12       30.10S
MARION         MOSUNNY   57  37  47 E9        30.14R
MT. VERNON     SUNNY     54  30  40 E12       30.16R
CENTRALIA*       N/A     53  33  45 CALM      30.14S
SALEM*         SUNNY     53  36  53 NE8       30.15S
METROPOLIS*    SUNNY     58  32  36 E7        30.11S
$$

ILZ067-068-072-073-078-083-087-091-231600-
SOUTHEAST ILLINOIS

CITY           SKY/WX    TMP DP  RH WIND       PRES   REMARKS
FLORA*         SUNNY     50  31  48 NE10      30.17S
FAIRFIELD*     SUNNY     54  36  50 NE9       30.15S
HARRISBURG*    SUNNY     55  36  48 E10       30.15R
ROBINSON*      SUNNY     51  33  49 CALM      30.17R
CARMI*         SUNNY     55  36  49 NE10      30.14F
$$

ABBREVIATIONS USED IN REMARKS
   TC - TEMPERATURE IN CELSIUS
  WCI - WIND CHILL INDEX
   HX - HEAT INDEX
  VSB - VISIBILITY
$$




USA.gov is the U.S. government's official web portal to all federal, state and local government web resources and services.